User: anonymous   Login
Location: Napier
(39.4830°S, 176.9170°E)
Time: 16:36:21
(UTC+13:00)
Language:

Cosmos 1633 - Orbit

View from above orbital plane
View from above orbital plane
View from above satellite
View from above satellite

Ground track
Ground track

The orbit data is extracted from the following two-line orbital elements,

1 15592U 85020A   19078.39019820 +.00001430 +00000-0 +47615-4 0  9999
2 15592 082.5391 036.9715 0014834 072.0758 288.2099 15.30145135861867
Epoch (UTC): 19 March 2019 09:21:53
Eccentricity: 0.0014834
inclination: 82.5391°
perigee height: 465 km
apogee height: 485 km
right ascension of ascending node: 36.9715°
argument of perigee: 72.0758°
revolutions per day: 15.30145135
mean anomaly at epoch: 288.2099°
orbit number at epoch: 86186

The dashed part of the orbit path shows where the satellite is in the earth's shadow,  

DLR